Location: Buckeye Ditch
(40.9104°N, 122.9517°W)
Time: 12:31:13
(UTC+00:00)

Explorer 7 - Pass Details

Date: 28 May 2025
Orbit: 445 x 571 km, 50.3° (Epoch: 22 June)

Event Time Altitude Azimuth Distance (km) Brightness Sun altitude
Rises 07:35:52 0° 243° (WSW) 2,433 - -27.1°
Reaches altitude 10° 07:37:59 10° 247° (WSW) 1,572 - -27.2°
Maximum altitude 07:41:30 64° 330° (NNW) 510 - -27.2°
Exits shadow 07:44:25 15° 50° (NE) 1,343 9.1 -27.3°
Drops below altitude 10° 07:45:07 10° 52° (NE) 1,624 9.6 -27.3°
Sets 07:47:20 0° 56° (NE) 2,524 10.6 -27.4°
